Voltar ao catálogo

ONEWEB-0651

AtivoComunicaçõesPO
NORAD 56080·PAYLOAD·🇬🇧 United Kingdom

Lançado Mar 26, 2023 de Satish Dhawan Space Centre

Loading…

Próximas Passagens (próximas 24 horas)

TLE

AtualizadoSource: CelesTrak SupGP

Época: Sep 15, 2026, 00:38 UTC

1 56080C 23043AL  26258.02687917 -.00002109  00000+0 -56094-2 0  2581
2 56080  87.8982 241.3038 0002108  93.4022 298.6002 13.15553053    14

Acompanhe ONEWEB-0651 em tempo real com AllMySat

Download on the App Store